Location: Newark
(30.1000°N, 109.4667°E)
Time: 00:37:22
(UTC+00:00)

Vanguard 1 Rocket - Pass Details

Date: 27 February 2020
Orbit: 650 x 4226 km, 34.3° (Epoch: 28 March)

Event Time Altitude Azimuth Distance (km) Brightness Sun altitude
Rises 13:00:14 0° 202° (SSW) 8,372 12.5 -31.2°
Reaches altitude 10° 13:08:37 10° 190° (S) 7,023 11.9 -33.0°
Enters shadow 13:21:28 22° 155° (SSE) 5,121 10.8 -35.7°
